User: anonymous   Login
Location: Seminole
(32.7190°N, 102.6440°W)
Time: 17:48:36
(UTC-05:00)
Language:

Meteor 2-10 - Orbit

View from above orbital plane
View from above orbital plane
View from above satellite
View from above satellite

Ground track
Ground track

The orbit data is extracted from the following two-line orbital elements,

1 14452U 83109A   17266.67894433 +.00000067 +00000-0 +20899-4 0  9998
2 14452 081.1641 336.9089 0092209 095.3635 265.8073 14.26439731762781
Epoch (UTC): 23 September 2017 16:17:40
Eccentricity: 0.0092209
inclination: 81.1641°
perigee height: 737 km
apogee height: 870 km
right ascension of ascending node: 336.9089°
argument of perigee: 95.3635°
revolutions per day: 14.26439731
mean anomaly at epoch: 265.8073°
orbit number at epoch: 76278

The dashed part of the orbit path shows where the satellite is in the earth's shadow,  

DLR